Regional Weather Roundup
Issued by NWS Sioux Falls, SD

Home | Current Version | Previous Version | Graphics & Text | Print | Product List | Glossary On
Versions: 1 2 3 4 5 6 7 8 9 10 11 12 13 14 15 16 17 18 19 20 21 22 23 24 25 26 27 28 29 30 31 32 33 34 35 36 37 38 39 40 41 42 43 44 45 46 47 48 49 50
000
ASUS43 KFSD 301402
RWRFSD

WEATHER ROUNDUP FOR SE SOUTH DAKOTA/SW MINNESOTA/NW IOWA
NATIONAL WEATHER SERVICE SIOUX FALLS SD
900 AM CDT THU JUL 30 2015

NOTE: "FAIR" INDICATES FEW OR NO CLOUDS BELOW 12,000 FEET WITH NO
SIGNIFICANT WEATHER AND OR OBSTRUCTIONS TO VISIBILITY.


SDZ038>040-050-052>070-301500-
SOUTHEAST SOUTH DAKOTA

CITY           SKY/WX    TMP DP  RH WIND       PRES   REMARKS
BROOKINGS      SUNNY     66  57  72 N5        30.16S
CHAMBERLAIN    NOT AVBL
HURON          SUNNY     69  56  62 CALM      30.13S
MADISON        FAIR      68  61  77 NW6       30.16R
MITCHELL       SUNNY     69  59  70 NW5       30.15R
SIOUX FALLS    MOSUNNY   71  58  63 SW7       30.14R
WINNER         FAIR      71  54  54 W5        30.19S
YANKTON        SUNNY     73  57  56 W12       30.15R
$$

MNZ071-072-080-081-089-090-097-098-301500-
SOUTHWEST MINNESOTA

CITY           SKY/WX    TMP DP  RH WIND       PRES   REMARKS
FAIRMONT       SUNNY     72  57  60 CALM      30.11R
JACKSON        SUNNY     73  59  60 W7        30.13R
LUVERNE        SUNNY     68  61  77 SW3       30.15R
MARSHALL       SUNNY     73  55  53 W10       30.12R
MONTEVIDEO     SUNNY     73  63  68 NW5       30.11R
PIPESTONE      SUNNY     70  55  60 CALM      30.15R
REDWOOD FALLS  SUNNY     72  57  59 W12       30.09R
TRACY          SUNNY     72  59  64 W6        30.12R
WINDOM         SUNNY     70  59  68 W3        30.12S
WORTHINGTON    SUNNY     72  55  56 W9        30.14R
$$

IAZ001>003-012>014-020>022-031-032-NEZ013-014-SDZ071-301500-
NORTHWEST IOWA

CITY           SKY/WX    TMP DP  RH WIND       PRES   REMARKS
DENISON        SUNNY     68  61  77 W6        30.17R
ESTHERVILLE    SUNNY     68  61  78 SW8       30.12R
SIOUX CITY     SUNNY     72  58  61 W8        30.17R
SPENCER          N/A     70  61  73 SW5       30.14S
$$

ABBREVIATIONS USED IN REMARKS
   TC - TEMPERATURE IN CELSIUS
  WCI - WIND CHILL INDEX
   HX - HEAT INDEX
  VSB - VISIBILITY




USA.gov is the U.S. government's official web portal to all federal, state and local government web resources and services.